This demonstration page uses our WeatherBlox Daily Observations layout. Learn more.

Left ArrowRight Arrow

41.86663, -103.66717

Hourly Observations for April 10, 2017

Temp ( °F °C ) Dew Point ( °F °C ) Humidity (%) Winds ( mph kmh ) Pressure ( in mb ) Visibility ( mi km ) Precip ( " mm )
12:53 am 00:53 Cloudy 37 2.8 26 -3.3 65 65 WNW 30 48 29.91 1013 10 16.0934 N/A
1:53 am 01:53 Mostly Cloudy 36 2.2 25 -3.9 64 64 WNW 35 56 29.94 1014 10 16.0934 N/A
2:53 am 02:53 Mostly Cloudy 36 2.2 26 -3.3 67 67 WNW 28 44 29.97 1015 10 16.0934 N/A
3:53 am 03:53 Partly Cloudy 35 1.7 25 -3.9 67 67 NW 20 31 30.01 1016 10 16.0934 N/A
4:53 am 04:53 Cloudy 36 2.2 25 -3.9 64 64 NW 23 37 30.05 1018 10 16.0934 N/A
5:53 am 05:53 Clear 34 1.1 25 -3.9 70 70 WNW 18 30 30.09 1019 10 16.0934 N/A
6:53 am 06:53 Sunny 33 0.6 25 -3.9 72 72 WNW 18 30 30.14 1021 10 16.0934 N/A
7:53 am 07:53 Sunny 36 2.2 26 -3.3 67 67 NW 18 30 30.17 1022 10 16.0934 N/A
8:53 am 08:53 Sunny 40 4.4 25 -3.9 55 55 NNW 24 39 30.19 1022 10 16.0934 N/A
9:53 am 09:53 Partly Cloudy 44 6.7 25 -3.9 47 47 NNW 23 37 30.2 1023 10 16.0934 N/A
10:53 am 10:53 Mostly Cloudy 46 7.8 25 -3.9 44 44 NW 17 28 30.2 1023 10 16.0934 N/A
11:53 am 11:53 Mostly Cloudy 50 10 26 -3.3 39 39 NNW 18 30 30.17 1022 10 16.0934 N/A
12:53 pm 12:53 Mostly Cloudy 50 10 26 -3.3 39 39 NW 16 26 30.16 1021 10 16.0934 N/A
1:53 pm 13:53 Partly Cloudy 52 11.1 25 -3.9 35 35 NNW 14 22 30.15 1021 10 16.0934 N/A
2:53 pm 14:53 Mostly Sunny 55 12.8 22 -5.6 28 28 NNW 12 19 30.11 1020 10 16.0934 N/A
3:53 pm 15:53 Sunny 57 13.9 23 -5 27 27 NW 13 20 30.1 1019 10 16.0934 N/A
4:53 pm 16:53 Sunny 56 13.3 21 -6.1 26 26 NW 7 11 30.08 1019 10 16.0934 N/A
5:53 pm 17:53 Sunny 55 12.8 20 -6.7 25 25 ESE 5 7 30.08 1019 10 16.0934 N/A
6:53 pm 18:53 Sunny 54 12.2 21 -6.1 28 28 N N/A 30.09 1019 10 16.0934 N/A
7:53 pm 19:53 Clear 43 6.1 22 -5.6 43 43 E 7 11 30.12 1020 10 16.0934 N/A
8:53 pm 20:53 Clear 42 5.6 27 -2.8 55 55 E 10 17 30.15 1021 10 16.0934 N/A
9:53 pm 21:53 Clear 37 2.8 26 -3.3 65 65 ESE 8 13 30.16 1022 10 16.0934 N/A
10:53 pm 22:53 Clear 36 2.2 27 -2.8 70 70 E 8 13 30.16 1022 10 16.0934 N/A
11:53 pm 23:53 Clear 37 2.8 27 -2.8 67 67 SE 12 19 30.14 1021 10 16.0934 N/A

Powered by AerisWeather